Location: Olsztyn
(53.7767°N, 20.4765°E)
Time: 06:45:07
(UTC+01:00)

Transit 4A - Pass Details

Date: 08 October 2022
Orbit: 871 x 972 km, 66.8° (Epoch: 06 December)

Event Time Altitude Azimuth Distance (km) Brightness Sun altitude
Exits shadow 01:17:34 24° 2° (N) 1,766 9.8 -40.9°
Drops below altitude 10° 01:21:27 10° 42° (NE) 2,554 10.8 -40.7°
Sets 01:24:24 0° 56° (NE) 3,483 11.5 -40.6°
